Time,TemperatureF,DewpointF,PressureIn,WindDirection,WindDirectionDegrees,WindSpeedMPH,WindSpeedGustMPH,Humidity,HourlyPrecipIn,Conditions,Clouds,dailyrainin,SoftwareType,DateUTC
2013-06-07 00:02:00,50.0,42.0,-100.00,WSW,246,12.0,18.0,73,0.00,,,-99.99,,2013-06-07 00:02:00,
2013-06-07 00:30:00,49.0,41.0,-100.00,WSW,250,15.0,19.0,72,0.00,,,-99.99,,2013-06-07 00:30:00,
2013-06-07 00:52:00,49.0,41.0,-100.00,WSW,250,15.0,19.0,72,0.00,,,-99.99,,2013-06-07 00:52:00,
2013-06-07 01:02:00,49.0,41.0,-100.00,WSW,250,15.0,19.0,72,0.00,,,-99.99,,2013-06-07 01:02:00,
2013-06-07 01:30:00,50.0,42.0,-100.00,WSW,253,16.0,20.0,74,0.00,,,-99.99,,2013-06-07 01:30:00,
2013-06-07 01:52:00,50.0,42.0,-100.00,WSW,253,16.0,20.0,74,0.00,,,-99.99,,2013-06-07 01:52:00,
2013-06-07 02:02:00,50.0,42.0,-100.00,WSW,253,16.0,20.0,74,0.00,,,-99.99,,2013-06-07 02:02:00,
2013-06-07 02:12:00,50.0,42.0,-100.00,WSW,253,16.0,20.0,74,0.00,,,-99.99,,2013-06-07 02:12:00,
2013-06-07 02:22:00,50.0,42.0,-100.00,WSW,253,16.0,20.0,74,0.00,,,-99.99,,2013-06-07 02:22:00,
2013-06-07 02:30:00,50.0,42.0,-100.00,West,259,16.0,22.0,73,0.00,,,-99.99,,2013-06-07 02:30:00,
2013-06-07 02:52:00,50.0,42.0,-100.00,West,259,16.0,22.0,73,0.00,,,-99.99,,2013-06-07 02:52:00,
2013-06-07 03:02:00,50.0,42.0,-100.00,West,259,16.0,22.0,73,0.00,,,-99.99,,2013-06-07 03:02:00,
2013-06-07 03:12:00,50.0,42.0,-100.00,West,259,16.0,22.0,73,0.00,,,-99.99,,2013-06-07 03:12:00,
2013-06-07 03:22:00,50.0,42.0,-100.00,West,259,16.0,22.0,73,0.00,,,-99.99,,2013-06-07 03:22:00,
2013-06-07 03:30:00,50.0,41.0,-100.00,West,261,17.0,24.0,72,0.00,,,-99.99,,2013-06-07 03:30:00,
2013-06-07 03:53:00,50.0,41.0,-100.00,West,261,17.0,24.0,72,0.00,,,-99.99,,2013-06-07 03:53:00,
2013-06-07 04:03:00,50.0,41.0,-100.00,West,261,17.0,24.0,72,0.00,,,-99.99,,2013-06-07 04:03:00,
2013-06-07 04:12:00,50.0,41.0,-100.00,West,261,17.0,24.0,72,0.00,,,-99.99,,2013-06-07 04:12:00,
2013-06-07 04:22:00,50.0,41.0,-100.00,West,261,17.0,24.0,72,0.00,,,-99.99,,2013-06-07 04:22:00,
2013-06-07 04:30:00,50.0,41.0,-100.00,West,275,13.0,19.0,72,0.00,,,-99.99,,2013-06-07 04:30:00,
2013-06-07 04:53:00,50.0,41.0,-100.00,West,275,13.0,19.0,72,0.00,,,-99.99,,2013-06-07 04:53:00,
2013-06-07 05:03:00,50.0,41.0,-100.00,West,275,13.0,19.0,72,0.00,,,-99.99,,2013-06-07 05:03:00,
2013-06-07 05:12:00,50.0,41.0,-100.00,West,275,13.0,19.0,72,0.00,,,-99.99,,2013-06-07 05:12:00,
2013-06-07 05:22:00,50.0,41.0,-100.00,West,275,13.0,19.0,72,0.00,,,-99.99,,2013-06-07 05:22:00,
2013-06-07 05:30:00,50.0,39.0,-100.00,West,275,11.0,17.0,66,0.00,,,-99.99,,2013-06-07 05:30:00,
2013-06-07 05:52:00,50.0,39.0,-100.00,West,275,11.0,17.0,66,0.00,,,-99.99,,2013-06-07 05:52:00,
2013-06-07 06:02:00,50.0,39.0,-100.00,West,275,11.0,17.0,66,0.00,,,-99.99,,2013-06-07 06:02:00,
2013-06-07 06:12:00,50.0,39.0,-100.00,West,275,11.0,17.0,66,0.00,,,-99.99,,2013-06-07 06:12:00,
2013-06-07 06:22:00,50.0,39.0,-100.00,West,275,11.0,17.0,66,0.00,,,-99.99,,2013-06-07 06:22:00,
2013-06-07 06:30:00,50.0,39.0,-100.00,West,262,10.0,14.0,65,0.00,,,-99.99,,2013-06-07 06:30:00,
2013-06-07 06:52:00,50.0,39.0,-100.00,West,262,10.0,14.0,65,0.00,,,-99.99,,2013-06-07 06:52:00,
2013-06-07 07:02:00,50.0,39.0,-100.00,West,262,10.0,14.0,65,0.00,,,-99.99,,2013-06-07 07:02:00,
2013-06-07 07:12:00,50.0,39.0,-100.00,West,262,10.0,14.0,65,0.00,,,-99.99,,2013-06-07 07:12:00,
2013-06-07 07:22:00,50.0,39.0,-100.00,West,262,10.0,14.0,65,0.00,,,-99.99,,2013-06-07 07:22:00,
2013-06-07 07:30:00,49.0,39.0,-100.00,WNW,285,6.0,9.0,67,0.00,,,-99.99,,2013-06-07 07:30:00,
2013-06-07 07:52:00,49.0,39.0,-100.00,WNW,285,6.0,9.0,67,0.00,,,-99.99,,2013-06-07 07:52:00,
2013-06-07 08:02:00,49.0,39.0,-100.00,WNW,285,6.0,9.0,67,0.00,,,-99.99,,2013-06-07 08:02:00,
2013-06-07 08:12:00,49.0,39.0,-100.00,WNW,285,6.0,9.0,67,0.00,,,-99.99,,2013-06-07 08:12:00,
2013-06-07 08:22:00,49.0,39.0,-100.00,WNW,285,6.0,9.0,67,0.00,,,-99.99,,2013-06-07 08:22:00,
2013-06-07 08:30:00,49.0,38.0,-100.00,NNW,329,3.0,5.0,66,0.00,,,-99.99,,2013-06-07 08:30:00,
2013-06-07 08:52:00,49.0,38.0,-100.00,NNW,329,3.0,5.0,66,0.00,,,-99.99,,2013-06-07 08:52:00,
2013-06-07 09:02:00,49.0,38.0,-100.00,NNW,329,3.0,5.0,66,0.00,,,-99.99,,2013-06-07 09:02:00,
2013-06-07 09:12:00,49.0,38.0,-100.00,NNW,329,3.0,5.0,66,0.00,,,-99.99,,2013-06-07 09:12:00,
2013-06-07 09:22:00,49.0,38.0,-100.00,NNW,329,3.0,5.0,66,0.00,,,-99.99,,2013-06-07 09:22:00,
2013-06-07 09:30:00,48.0,40.0,-100.00,NE,56,3.0,4.0,74,0.00,,,-99.99,,2013-06-07 09:30:00,
2013-06-07 09:53:00,48.0,40.0,-100.00,NE,56,3.0,4.0,74,0.00,,,-99.99,,2013-06-07 09:53:00,
2013-06-07 10:02:00,48.0,40.0,-100.00,NE,56,3.0,4.0,74,0.00,,,-99.99,,2013-06-07 10:02:00,
2013-06-07 10:12:00,48.0,40.0,-100.00,NE,56,3.0,4.0,74,0.00,,,-99.99,,2013-06-07 10:12:00,
2013-06-07 10:22:00,48.0,40.0,-100.00,NE,56,3.0,4.0,74,0.00,,,-99.99,,2013-06-07 10:22:00,
2013-06-07 10:30:00,47.0,40.0,-100.00,SE,128,5.0,7.0,77,0.00,,,-99.99,,2013-06-07 10:30:00,
2013-06-07 10:53:00,47.0,40.0,-100.00,SE,128,5.0,7.0,77,0.00,,,-99.99,,2013-06-07 10:53:00,
2013-06-07 11:02:00,47.0,40.0,-100.00,SE,128,5.0,7.0,77,0.00,,,-99.99,,2013-06-07 11:02:00,
2013-06-07 11:12:00,47.0,40.0,-100.00,SE,128,5.0,7.0,77,0.00,,,-99.99,,2013-06-07 11:12:00,
2013-06-07 11:22:00,47.0,40.0,-100.00,SE,128,5.0,7.0,77,0.00,,,-99.99,,2013-06-07 11:22:00,
2013-06-07 11:30:00,46.0,40.0,-100.00,ESE,119,6.0,6.0,79,0.00,,,-99.99,,2013-06-07 11:30:00,
2013-06-07 11:52:00,46.0,40.0,-100.00,ESE,119,6.0,6.0,79,0.00,,,-99.99,,2013-06-07 11:52:00,
2013-06-07 12:02:00,46.0,40.0,-100.00,ESE,119,6.0,6.0,79,0.00,,,-99.99,,2013-06-07 12:02:00,
2013-06-07 12:12:00,46.0,40.0,-100.00,ESE,119,6.0,6.0,79,0.00,,,-99.99,,2013-06-07 12:12:00,
2013-06-07 12:22:00,46.0,40.0,-100.00,ESE,119,6.0,6.0,79,0.00,,,-99.99,,2013-06-07 12:22:00,
2013-06-07 12:30:00,45.0,40.0,-100.00,ESE,105,7.0,8.0,80,0.00,,,-99.99,,2013-06-07 12:30:00,
2013-06-07 12:52:00,45.0,40.0,-100.00,ESE,105,7.0,8.0,80,0.00,,,-99.99,,2013-06-07 12:52:00,
2013-06-07 13:02:00,45.0,40.0,-100.00,ESE,105,7.0,8.0,80,0.00,,,-99.99,,2013-06-07 13:02:00,
2013-06-07 13:12:00,45.0,40.0,-100.00,ESE,105,7.0,8.0,80,0.00,,,-99.99,,2013-06-07 13:12:00,
2013-06-07 13:22:00,45.0,40.0,-100.00,ESE,105,7.0,8.0,80,0.00,,,-99.99,,2013-06-07 13:22:00,
2013-06-07 13:30:00,46.0,42.0,-100.00,ENE,59,9.0,11.0,85,0.00,,,-99.99,,2013-06-07 13:30:00,
2013-06-07 13:52:00,46.0,42.0,-100.00,ENE,59,9.0,11.0,85,0.00,,,-99.99,,2013-06-07 13:52:00,
2013-06-07 14:02:00,46.0,42.0,-100.00,ENE,59,9.0,11.0,85,0.00,,,-99.99,,2013-06-07 14:02:00,
2013-06-07 14:12:00,46.0,42.0,-100.00,ENE,59,9.0,11.0,85,0.00,,,-99.99,,2013-06-07 14:12:00,
2013-06-07 14:30:00,46.0,41.0,-100.00,ENE,64,10.0,12.0,84,0.00,,,-99.99,,2013-06-07 14:30:00,
2013-06-07 14:52:00,46.0,41.0,-100.00,ENE,64,10.0,12.0,84,0.00,,,-99.99,,2013-06-07 14:52:00,
2013-06-07 15:02:00,46.0,41.0,-100.00,ENE,64,10.0,12.0,84,0.00,,,-99.99,,2013-06-07 15:02:00,
2013-06-07 15:12:00,46.0,41.0,-100.00,ENE,64,10.0,12.0,84,0.00,,,-99.99,,2013-06-07 15:12:00,
2013-06-07 15:22:00,46.0,41.0,-100.00,ENE,64,10.0,12.0,84,0.00,,,-99.99,,2013-06-07 15:22:00,
2013-06-07 15:30:00,46.0,41.0,-100.00,NE,55,9.0,11.0,83,0.00,,,-99.99,,2013-06-07 15:30:00,
2013-06-07 15:53:00,46.0,41.0,-100.00,NE,55,9.0,11.0,83,0.00,,,-99.99,,2013-06-07 15:53:00,
2013-06-07 16:03:00,46.0,41.0,-100.00,NE,55,9.0,11.0,83,0.00,,,-99.99,,2013-06-07 16:03:00,
2013-06-07 16:12:00,46.0,41.0,-100.00,NE,55,9.0,11.0,83,0.00,,,-99.99,,2013-06-07 16:12:00,
2013-06-07 16:22:00,46.0,41.0,-100.00,NE,55,9.0,11.0,83,0.00,,,-99.99,,2013-06-07 16:22:00,
2013-06-07 16:30:00,46.0,42.0,-100.00,NE,49,10.0,11.0,83,0.00,,,-99.99,,2013-06-07 16:30:00,
2013-06-07 16:53:00,46.0,42.0,-100.00,NE,49,10.0,11.0,83,0.00,,,-99.99,,2013-06-07 16:53:00,
2013-06-07 17:02:00,46.0,42.0,-100.00,NE,49,10.0,11.0,83,0.00,,,-99.99,,2013-06-07 17:02:00,
2013-06-07 17:12:00,46.0,42.0,-100.00,NE,49,10.0,11.0,83,0.00,,,-99.99,,2013-06-07 17:12:00,
2013-06-07 17:22:00,46.0,42.0,-100.00,NE,49,10.0,11.0,83,0.00,,,-99.99,,2013-06-07 17:22:00,
2013-06-07 17:30:00,48.0,42.0,-100.00,NE,50,8.0,9.0,80,0.00,,,-99.99,,2013-06-07 17:30:00,
2013-06-07 17:52:00,48.0,42.0,-100.00,NE,50,8.0,9.0,80,0.00,,,-99.99,,2013-06-07 17:52:00,
2013-06-07 18:14:00,48.0,42.0,-100.00,NE,50,8.0,9.0,80,0.00,,,-99.99,,2013-06-07 18:14:00,
2013-06-07 18:23:00,48.0,42.0,-100.00,NE,50,8.0,9.0,80,0.00,,,-99.99,,2013-06-07 18:23:00,
2013-06-07 18:58:00,49.0,43.0,-100.00,ENE,68,6.0,7.0,79,0.00,,,-99.99,,2013-06-07 18:58:00,
2013-06-07 19:05:00,49.0,43.0,-100.00,ENE,68,6.0,7.0,79,0.00,,,-99.99,,2013-06-07 19:05:00,
2013-06-07 19:30:00,53.0,42.0,-100.00,ENE,63,2.0,3.0,67,0.00,,,-99.99,,2013-06-07 19:30:00,
2013-06-07 19:57:00,53.0,42.0,-100.00,ENE,63,2.0,3.0,67,0.00,,,-99.99,,2013-06-07 19:57:00,
2013-06-07 20:04:00,53.0,42.0,-100.00,ENE,63,2.0,3.0,67,0.00,,,-99.99,,2013-06-07 20:04:00,
2013-06-07 20:13:00,53.0,42.0,-100.00,ENE,63,2.0,3.0,67,0.00,,,-99.99,,2013-06-07 20:13:00,
2013-06-07 20:23:00,53.0,42.0,-100.00,ENE,63,2.0,3.0,67,0.00,,,-99.99,,2013-06-07 20:23:00,
2013-06-07 20:30:00,57.0,41.0,-100.00,WSW,245,6.0,10.0,56,0.00,,,-99.99,,2013-06-07 20:30:00,
2013-06-07 20:57:00,57.0,41.0,-100.00,WSW,245,6.0,10.0,56,0.00,,,-99.99,,2013-06-07 20:57:00,
2013-06-07 21:04:00,57.0,41.0,-100.00,WSW,245,6.0,10.0,56,0.00,,,-99.99,,2013-06-07 21:04:00,
2013-06-07 21:25:00,57.0,41.0,-100.00,WSW,245,6.0,10.0,56,0.00,,,-99.99,,2013-06-07 21:25:00,
2013-06-07 21:30:00,53.0,43.0,-100.00,West,272,12.0,20.0,68,0.00,,,-99.99,,2013-06-07 21:30:00,
2013-06-07 22:00:00,53.0,43.0,-100.00,West,272,12.0,20.0,68,0.00,,,-99.99,,2013-06-07 22:00:00,
2013-06-07 22:07:00,53.0,43.0,-100.00,West,272,12.0,20.0,68,0.00,,,-99.99,,2013-06-07 22:07:00,
2013-06-07 22:24:00,53.0,43.0,-100.00,West,272,12.0,20.0,68,0.00,,,-99.99,,2013-06-07 22:24:00,
2013-06-07 22:59:00,53.0,43.0,-100.00,WNW,284,14.0,19.0,68,0.00,,,-99.99,,2013-06-07 22:59:00,
2013-06-07 23:05:00,53.0,43.0,-100.00,WNW,284,14.0,19.0,68,0.00,,,-99.99,,2013-06-07 23:05:00,
2013-06-07 23:30:00,56.0,40.0,-100.00,West,280,11.0,15.0,55,0.00,,,-99.99,,2013-06-07 23:30:00,